Find YES

NORAD ID: 25025 Int'l Des: 1997-066 Owner: ESA Country: I-ESA operational
MEOELLIPTICALHEO_ELLIPTICAL

Live Position

Loading 3D Globe...

About YES

Description loading...

Upcoming Passes

Passes for default location (London). Set your location on the main map for personalized predictions.

Altitude History

Loading altitude history...

Two-Line Element Set

1 25025U 97066C 26104.37658197 -.00000105 00000-0 -16366-3 0 9994
2 25025 7.8149 49.9908 6522747 11.9579 98.7350 3.08023036133238
Epoch: Apr 14, 2026 • Age: 24 hours

Current Status

Altitude 25741.2 km
Velocity 2.20 km/s
Sub-Earth Point -0.46°S, 112.25°W
Launch Date Oct 30, 1997
Age 28.4 years
Type other

Technical Details

Classification Payload
Mass 175.00 kg
Dry Mass 175.00 kg
Total Mass 175.00 kg
Length 0.40 m
Diameter 1.00 m
Span 1.00 m
Shape Oct Cyl
Manufacturer ESTEC
Bus Type YES
Phase Status In Orbit
Owner/State ESA/I-ESA

Most Searched